Location: ?
(35.4214°N, 139.3011°E)
Time: 22:42:36
(UTC+00:00)

Cosmos 2333 Rocket - Pass Details

Date: 14 July 2020
Orbit: 837 x 864 km, 70.8° (Epoch: 10 August)

Event Time Altitude Azimuth Distance (km) Brightness Sun altitude
Rises 10:15:19 0° 200° (SSW) 3,385 5.2 -3.8°
Reaches altitude 10° 10:17:44 10° 200° (SSW) 2,458 4.5 -4.2°
Maximum altitude 10:23:24 90° 295° (WNW) 855 2.3 -5.2°
Drops below altitude 10° 10:29:08 10° 21° (NNE) 2,491 4.8 -6.2°
Sets 10:31:36 0° 22° (NNE) 3,434 5.5 -6.6°
